sat.trackr.live / text

‹ back to catalog

STARLINK-5044

NORAD 53898 · 2022-119N

PAYLOAD ACTIVE UNKNOWN

§ Identity

Operator
Country
US
Launch date
2022-09-24
Launch site
AFETR
Launch vehicle
Mass (kg)
RCS (m²)

Purposes: comms

External: N2YO · Heavens-Above · Gunter

§ Orbital elements

Epoch: 2026-09-20T10:24:39.799008Z

Period
93.90 min
Inclination
53.1604°
Eccentricity
0.0001612
Mean motion
15.33566994 rev/d
Perigee alt
464.1 km
Apogee alt
466.3 km
Semi-major
6,843.3 km
B*
1.1795e-4
RAAN
163.6666°
Arg perigee
104.6900°
Mean anomaly
255.4281°
Rev number
22,116

§ Raw data

STARLINK-50441 53898U 22119N   26263.43379397  .00003510  00000+0  11795-3 0  99962 53898  53.1604 163.6666 0001612 104.6900 255.4281 15.33566994221168

JSON: /api/v1/satellites/53898 · /tle

For live sub-satellite position, see the globe view (requires WebGL).

§ Visibility from observer

Set your observer location to see the next 7 days of passes ≥ 10°. The values pass through the URL so the page stays shareable.

No JS? Fill the form by hand. The geolocation button needs JavaScript.